| time (UTC) | temp F | wind direction | speed knots | gust knots | rain 1hr in | rain 24hr in | rain mn in | humidity % | barometer mb |
| 20260510120513 | 59 | 217 | 4.3 | 6.1 | 0.00 | 0.00 | 0.00 | 80 | 1016.5 |
| 20260510120009 | 59 | 207 | 3.5 | 4.3 | 0.00 | 0.00 | 0.00 | 80 | 1016.6 |
| 20260510115506 | 59 | 206 | 4.3 | 5.2 | 0.00 | 0.00 | 0.00 | 80 | 1016.7 |
| 20260510115002 | 59 | 228 | 4.3 | 6.1 | 0.00 | 0.00 | 0.00 | 80 | 1016.5 |
| 20260510114458 | 59 | 200 | 2.6 | 2.6 | 0.00 | 0.00 | 0.00 | 81 | 1016.3 |
| 20260510113954 | 59 | 217 | 2.6 | 4.3 | 0.00 | 0.00 | 0.00 | 81 | 1016.3 |
| 20260510113449 | 58 | 219 | 3.5 | 6.1 | 0.00 | 0.00 | 0.00 | 81 | 1015.9 |
| 20260510112948 | 58 | 208 | 3.5 | 5.2 | 0.00 | 0.00 | 0.00 | 81 | 1015.6 |
| 20260510112444 | 58 | 214 | 5.2 | 6.1 | 0.00 | 0.00 | 0.00 | 81 | 1016.0 |
| 20260510111941 | 58 | 210 | 4.3 | 6.1 | 0.00 | 0.00 | 0.00 | 81 | 1015.8 |
| 20260510111437 | 58 | 227 | 6.1 | 7.0 | 0.00 | 0.00 | 0.00 | 81 | 1015.9 |
| 20260510110933 | 58 | 205 | 3.5 | 4.3 | 0.00 | 0.00 | 0.00 | 81 | 1015.8 |
| 20260510110429 | 57 | 198 | 1.7 | 2.6 | 0.00 | 0.00 | 0.00 | 82 | 1015.5 |
| 20260510105925 | 57 | 216 | 1.7 | 2.6 | 0.00 | 0.00 | 0.00 | 83 | 1015.5 |
| 20260510105420 | 57 | 164 | 3.5 | 4.3 | 0.00 | 0.00 | 0.00 | 83 | 1015.4 |
| 20260510104910 | 57 | 212 | 2.6 | 2.6 | 0.00 | 0.00 | 0.00 | 82 | 1015.4 |
| 20260510104407 | 57 | 222 | 1.7 | 1.7 | 0.00 | 0.00 | 0.00 | 83 | 1015.5 |
| 20260510103904 | 57 | 223 | 4.3 | 5.2 | 0.00 | 0.00 | 0.00 | 82 | 1015.5 |
| 20260510103401 | 57 | 196 | 3.5 | 4.3 | 0.00 | 0.00 | 0.00 | 82 | 1015.1 |
| 20260510102857 | 57 | 203 | 5.2 | 7.0 | 0.00 | 0.00 | 0.00 | 83 | 1015.0 |
| 20260510102352 | 57 | 214 | 3.5 | 4.3 | 0.00 | 0.00 | 0.00 | 83 | 1015.0 |
| 20260510101850 | 57 | 185 | 1.7 | 1.7 | 0.00 | 0.00 | 0.00 | 83 | 1014.8 |
| 20260510101348 | 57 | 233 | 3.5 | 5.2 | 0.00 | 0.00 | 0.00 | 83 | 1015.0 |
| 20260510100844 | 57 | 228 | 3.5 | 6.1 | 0.00 | 0.00 | 0.00 | 83 | 1014.6 |
| 20260510100336 | 57 | 191 | 3.5 | 5.2 | 0.00 | 0.00 | 0.00 | 82 | 1014.6 |
| 20260510095832 | 57 | 233 | 4.3 | 5.2 | 0.00 | 0.00 | 0.00 | 82 | 1014.9 |
| 20260510095326 | 57 | 188 | 4.3 | 6.1 | 0.00 | 0.00 | 0.00 | 82 | 1014.7 |
| 20260510094820 | 57 | 190 | 4.3 | 5.2 | 0.00 | 0.00 | 0.00 | 82 | 1014.6 |
| 20260510094315 | 57 | 205 | 1.7 | 1.7 | 0.00 | 0.00 | 0.00 | 82 | 1014.8 |
| 20260510093812 | 57 | 216 | 1.7 | 2.6 | 0.00 | 0.00 | 0.00 | 82 | 1014.6 |
| 20260510093308 | 57 | 217 | 1.7 | 1.7 | 0.00 | 0.00 | 0.00 | 82 | 1014.7 |
| 20260510092805 | 57 | 216 | 3.5 | 4.3 | 0.00 | 0.00 | 0.00 | 82 | 1014.7 |
| 20260510092300 | 57 | 190 | 2.6 | 4.3 | 0.00 | 0.00 | 0.00 | 82 | 1014.6 |
| 20260510091756 | 57 | 188 | 2.6 | 2.6 | 0.00 | 0.00 | 0.00 | 82 | 1014.5 |
| 20260510091254 | 57 | 213 | 3.5 | 4.3 | 0.00 | 0.00 | 0.00 | 82 | 1014.2 |
| 20260510090750 | 58 | 179 | 5.2 | 7.0 | 0.00 | 0.00 | 0.00 | 81 | 1014.5 |
| 20260510090247 | 58 | 178 | 5.2 | 6.1 | 0.00 | 0.00 | 0.00 | 81 | 1014.4 |
| 20260510085743 | 58 | 204 | 2.6 | 4.3 | 0.00 | 0.00 | 0.00 | 81 | 1014.5 |
| 20260510085237 | 58 | 215 | 5.2 | 5.2 | 0.00 | 0.00 | 0.00 | 81 | 1014.3 |
| 20260510084734 | 58 | 234 | 4.3 | 5.2 | 0.00 | 0.00 | 0.00 | 81 | 1013.9 |
| 20260510084231 | 58 | 195 | 3.5 | 4.3 | 0.00 | 0.00 | 0.00 | 81 | 1014.3 |
| 20260510083727 | 58 | 210 | 4.3 | 6.1 | 0.00 | 0.00 | 0.00 | 81 | 1014.2 |
| 20260510083224 | 58 | 216 | 7.8 | 12.2 | 0.00 | 0.00 | 0.00 | 81 | 1014.1 |
| 20260510082720 | 58 | 210 | 2.6 | 4.3 | 0.00 | 0.00 | 0.00 | 81 | 1014.2 |
| 20260510082217 | 58 | 187 | 2.6 | 5.2 | 0.00 | 0.00 | 0.00 | 81 | 1014.2 |
| 20260510081710 | 58 | 196 | 6.1 | 6.1 | 0.00 | 0.00 | 0.00 | 81 | 1014.2 |
| 20260510081207 | 58 | 227 | 5.2 | 7.0 | 0.00 | 0.00 | 0.00 | 81 | 1014.3 |
| 20260510080706 | 58 | 172 | 3.5 | 4.3 | 0.00 | 0.00 | 0.00 | 81 | 1014.2 |
| 20260510080203 | 58 | 229 | 6.1 | 7.0 | 0.00 | 0.00 | 0.00 | 81 | 1014.2 |
| 20260510075700 | 58 | 206 | 2.6 | 4.3 | 0.00 | 0.00 | 0.00 | 81 | 1013.9 |
| 20260510075158 | 58 | 212 | 7.8 | 8.7 | 0.00 | 0.00 | 0.00 | 81 | 1014.1 |
| 20260510074655 | 58 | 217 | 6.1 | 7.8 | 0.00 | 0.00 | 0.00 | 81 | 1014.2 |
| 20260510074150 | 58 | 222 | 4.3 | 7.0 | 0.00 | 0.00 | 0.00 | 81 | 1013.9 |
| 20260510073647 | 57 | 212 | 4.3 | 7.0 | 0.00 | 0.00 | 0.00 | 82 | 1013.9 |
| 20260510073143 | 58 | 207 | 4.3 | 5.2 | 0.00 | 0.00 | 0.00 | 81 | 1014.1 |
| 20260510072639 | 58 | 215 | 4.3 | 6.1 | 0.00 | 0.00 | 0.00 | 81 | 1013.8 |
| 20260510072136 | 58 | 222 | 6.1 | 7.8 | 0.00 | 0.00 | 0.00 | 81 | 1014.1 |
| 20260510071631 | 58 | 224 | 3.5 | 4.3 | 0.00 | 0.00 | 0.00 | 81 | 1013.8 |
| 20260510071130 | 58 | 185 | 4.3 | 5.2 | 0.00 | 0.00 | 0.00 | 81 | 1014.1 |
| 20260510070626 | 58 | 239 | 5.2 | 6.1 | 0.00 | 0.00 | 0.00 | 81 | 1013.9 |
| 20260510070124 | 58 | 208 | 4.3 | 6.1 | 0.00 | 0.00 | 0.00 | 81 | 1013.9 |
| 20260510065620 | 58 | 218 | 6.1 | 8.7 | 0.00 | 0.00 | 0.00 | 81 | 1013.7 |
| 20260510065116 | 58 | 225 | 6.1 | 8.7 | 0.00 | 0.00 | 0.00 | 80 | 1013.5 |
| 20260510064613 | 58 | 193 | 4.3 | 5.2 | 0.00 | 0.00 | 0.00 | 80 | 1013.8 |
| 20260510064110 | 58 | 228 | 4.3 | 6.1 | 0.00 | 0.00 | 0.00 | 80 | 1013.8 |
| 20260510063607 | 58 | 211 | 3.5 | 4.3 | 0.00 | 0.00 | 0.00 | 80 | 1013.9 |
| 20260510063104 | 58 | 219 | 3.5 | 5.2 | 0.00 | 0.00 | 0.00 | 80 | 1014.1 |
| 20260510062559 | 59 | 233 | 3.5 | 5.2 | 0.00 | 0.00 | 0.00 | 80 | 1013.9 |
| 20260510062054 | 59 | 210 | 3.5 | 7.0 | 0.00 | 0.00 | 0.00 | 80 | 1013.9 |
| 20260510061551 | 59 | 219 | 7.8 | 9.6 | 0.00 | 0.00 | 0.00 | 79 | 1014.2 |
| 20260510061048 | 59 | 236 | 4.3 | 6.1 | 0.00 | 0.00 | 0.00 | 79 | 1014.3 |
| 20260510060544 | 59 | 242 | 3.5 | 5.2 | 0.00 | 0.00 | 0.00 | 79 | 1014.2 |
| 20260510060040 | 59 | 203 | 6.1 | 8.7 | 0.00 | 0.00 | 0.00 | 79 | 1013.9 |
| 20260510055537 | 59 | 195 | 2.6 | 2.6 | 0.00 | 0.00 | 0.00 | 79 | 1014.1 |
| 20260510055035 | 59 | 230 | 7.0 | 7.8 | 0.00 | 0.00 | 0.00 | 78 | 1013.9 |
| 20260510054530 | 59 | 200 | 5.2 | 7.0 | 0.00 | 0.00 | 0.00 | 78 | 1014.1 |
| 20260510054025 | 59 | 226 | 2.6 | 4.3 | 0.00 | 0.00 | 0.00 | 78 | 1014.2 |
| 20260510053521 | 59 | 194 | 5.2 | 6.1 | 0.00 | 0.00 | 0.00 | 78 | 1014.2 |
| 20260510053018 | 59 | 210 | 1.7 | 1.7 | 0.00 | 0.00 | 0.00 | 78 | 1014.4 |
| 20260510052514 | 59 | 215 | 5.2 | 6.1 | 0.00 | 0.00 | 0.00 | 78 | 1014.3 |
| 20260510052010 | 59 | 212 | 4.3 | 5.2 | 0.00 | 0.00 | 0.00 | 77 | 1014.3 |
| 20260510051505 | 59 | 210 | 3.5 | 5.2 | 0.00 | 0.00 | 0.00 | 77 | 1014.6 |
| 20260510051002 | 59 | 205 | 7.0 | 9.6 | 0.00 | 0.00 | 0.00 | 77 | 1014.4 |
| 20260510050459 | 59 | 221 | 7.8 | 11.3 | 0.00 | 0.00 | 0.00 | 77 | 1014.4 |
| 20260510045956 | 59 | 214 | 5.2 | 7.0 | 0.00 | 0.00 | 0.00 | 77 | 1014.3 |
| 20260510045454 | 59 | 216 | 2.6 | 4.3 | 0.00 | 0.00 | 0.00 | 76 | 1014.2 |
| 20260510044950 | 59 | 214 | 5.2 | 6.1 | 0.00 | 0.00 | 0.00 | 76 | 1014.2 |
| 20260510044447 | 60 | 228 | 3.5 | 5.2 | 0.00 | 0.00 | 0.00 | 76 | 1014.4 |
| 20260510043944 | 60 | 252 | 7.0 | 8.7 | 0.00 | 0.00 | 0.00 | 76 | 1014.3 |
| 20260510043439 | 59 | 184 | 6.1 | 7.8 | 0.00 | 0.00 | 0.00 | 76 | 1014.1 |
| 20260510042938 | 60 | 187 | 3.5 | 5.2 | 0.00 | 0.00 | 0.00 | 75 | 1014.1 |
| 20260510042434 | 59 | 228 | 3.5 | 5.2 | 0.00 | 0.00 | 0.00 | 76 | 1014.2 |
| 20260510041929 | 60 | 159 | 6.1 | 7.0 | 0.00 | 0.00 | 0.00 | 76 | 1014.2 |
| 20260510041427 | 60 | 229 | 5.2 | 7.0 | 0.00 | 0.00 | 0.00 | 75 | 1013.9 |
| 20260510040925 | 59 | 228 | 2.6 | 2.6 | 0.00 | 0.00 | 0.00 | 76 | 1014.1 |
| 20260510040422 | 60 | 232 | 3.5 | 4.3 | 0.00 | 0.00 | 0.00 | 75 | 1013.9 |
| 20260510035917 | 60 | 212 | 3.5 | 5.2 | 0.00 | 0.14 | 0.14 | 75 | 1013.9 |
| 20260510035414 | 60 | 177 | 6.1 | 7.0 | 0.00 | 0.14 | 0.14 | 75 | 1014.1 |
| 20260510034913 | 60 | 194 | 3.5 | 5.2 | 0.00 | 0.14 | 0.14 | 75 | 1013.9 |
| 20260510034412 | 60 | 216 | 2.6 | 2.6 | 0.00 | 0.14 | 0.14 | 75 | 1013.8 |
| 20260510033908 | 60 | 235 | 5.2 | 6.1 | 0.00 | 0.14 | 0.14 | 74 | 1013.8 |
| 20260510033405 | 61 | 240 | 10.4 | 12.2 | 0.00 | 0.14 | 0.14 | 73 | 1013.7 |
| 20260510032901 | 61 | 248 | 6.1 | 7.8 | 0.00 | 0.14 | 0.14 | 73 | 1013.6 |
| 20260510032358 | 60 | 228 | 6.1 | 7.8 | 0.00 | 0.14 | 0.14 | 73 | 1013.6 |
| 20260510031853 | 60 | 229 | 2.6 | 2.6 | 0.00 | 0.14 | 0.14 | 73 | 1013.6 |
| 20260510031349 | 61 | 235 | 4.3 | 7.8 | 0.00 | 0.14 | 0.14 | 72 | 1013.7 |
| 20260510030848 | 61 | 223 | 3.5 | 5.2 | 0.00 | 0.14 | 0.14 | 72 | 1013.5 |
| 20260510030346 | 61 | 225 | 7.0 | 8.7 | 0.00 | 0.14 | 0.14 | 72 | 1013.4 |
| 20260510025843 | 61 | 218 | 2.6 | 4.3 | 0.00 | 0.14 | 0.14 | 72 | 1013.4 |
| 20260510025340 | 61 | 230 | 2.6 | 4.3 | 0.00 | 0.14 | 0.14 | 71 | 1013.3 |
| 20260510024837 | 61 | 183 | 6.1 | 7.0 | 0.00 | 0.14 | 0.14 | 71 | 1013.3 |
| 20260510024334 | 61 | 235 | 7.8 | 9.6 | 0.00 | 0.14 | 0.14 | 71 | 1013.5 |
| 20260510023830 | 61 | 199 | 3.5 | 5.2 | 0.00 | 0.14 | 0.14 | 71 | 1013.3 |
| 20260510023326 | 61 | 188 | 3.5 | 6.1 | 0.00 | 0.14 | 0.14 | 71 | 1013.2 |
| 20260510022824 | 61 | 213 | 4.3 | 6.1 | 0.00 | 0.14 | 0.14 | 71 | 1013.1 |
| 20260510022323 | 61 | 222 | 4.3 | 6.1 | 0.00 | 0.14 | 0.14 | 71 | 1013.3 |
| 20260510021822 | 61 | 194 | 3.5 | 4.3 | 0.00 | 0.14 | 0.14 | 71 | 1013.4 |
| 20260510021321 | 61 | 184 | 4.3 | 5.2 | 0.00 | 0.14 | 0.14 | 71 | 1013.1 |
| 20260510020816 | 61 | 231 | 5.2 | 6.1 | 0.00 | 0.14 | 0.14 | 71 | 1013.0 |
| 20260510020311 | 61 | 209 | 3.5 | 4.3 | 0.00 | 0.14 | 0.14 | 71 | 1013.1 |
| 20260510015807 | 61 | 235 | 2.6 | 2.6 | 0.00 | 0.14 | 0.14 | 71 | 1012.9 |
| 20260510015306 | 61 | 225 | 4.3 | 7.0 | 0.00 | 0.14 | 0.14 | 71 | 1012.9 |
| 20260510014759 | 61 | 217 | 2.6 | 2.6 | 0.00 | 0.14 | 0.14 | 70 | 1012.9 |
| 20260510014256 | 61 | 217 | 4.3 | 5.2 | 0.00 | 0.14 | 0.14 | 70 | 1012.7 |
| 20260510013753 | 61 | 200 | 4.3 | 5.2 | 0.00 | 0.14 | 0.14 | 70 | 1012.8 |
| 20260510013248 | 61 | 214 | 5.2 | 6.1 | 0.00 | 0.14 | 0.14 | 70 | 1012.6 |
| 20260510012743 | 61 | 204 | 3.5 | 4.3 | 0.00 | 0.14 | 0.14 | 71 | 1012.5 |
| 20260510012238 | 61 | 211 | 3.5 | 5.2 | 0.00 | 0.14 | 0.14 | 71 | 1012.5 |
| 20260510011737 | 61 | 203 | 1.7 | 1.7 | 0.00 | 0.14 | 0.14 | 71 | 1012.6 |
| 20260510011233 | 61 | 202 | 2.6 | 4.3 | 0.00 | 0.14 | 0.14 | 70 | 1012.5 |
| 20260510010730 | 61 | 223 | 4.3 | 5.2 | 0.00 | 0.14 | 0.14 | 70 | 1012.5 |
| 20260510010226 | 61 | 212 | 4.3 | 5.2 | 0.00 | 0.14 | 0.14 | 70 | 1012.3 |
| 20260510005723 | 61 | 186 | 2.6 | 2.6 | 0.00 | 0.14 | 0.14 | 70 | 1012.4 |
| 20260510005220 | 61 | 228 | 1.7 | 2.6 | 0.00 | 0.14 | 0.14 | 70 | 1012.4 |
| 20260510004718 | 61 | 232 | 2.6 | 2.6 | 0.00 | 0.14 | 0.14 | 70 | 1012.2 |
| 20260510004216 | 61 | 220 | 4.3 | 5.2 | 0.00 | 0.14 | 0.14 | 70 | 1012.2 |
| 20260510003713 | 61 | 217 | 1.7 | 1.7 | 0.00 | 0.14 | 0.14 | 69 | 1012.2 |
| 20260510003209 | 61 | 200 | 2.6 | 4.3 | 0.00 | 0.14 | 0.14 | 69 | 1012.1 |
| 20260510002708 | 61 | 212 | 2.6 | 2.6 | 0.00 | 0.14 | 0.14 | 69 | 1012.2 |
| 20260510002205 | 62 | 210 | 2.6 | 2.6 | 0.00 | 0.14 | 0.14 | 69 | 1012.0 |
| 20260510001702 | 62 | 227 | 3.5 | 5.2 | 0.00 | 0.14 | 0.14 | 68 | 1011.9 |
| 20260510001202 | 62 | 202 | 0.9 | 1.7 | 0.00 | 0.14 | 0.14 | 68 | 1012.0 |
| 20260510000702 | 62 | 206 | 2.6 | 2.6 | 0.00 | 0.14 | 0.14 | 68 | 1011.7 |
| 20260510000159 | 62 | 207 | 2.6 | 4.3 | 0.00 | 0.14 | 0.14 | 67 | 1011.9 |
| 20260509235656 | 63 | 225 | 1.7 | 1.7 | 0.00 | 0.14 | 0.14 | 67 | 1011.9 |
| 20260509235152 | 63 | 249 | 4.3 | 5.2 | 0.00 | 0.14 | 0.14 | 66 | 1011.4 |
| 20260509234648 | 64 | 242 | 4.3 | 5.2 | 0.00 | 0.14 | 0.14 | 65 | 1011.3 |
| 20260509234146 | 64 | 243 | 3.5 | 4.3 | 0.00 | 0.14 | 0.14 | 65 | 1011.6 |
| 20260509233644 | 64 | 230 | 0.9 | 1.7 | 0.00 | 0.14 | 0.14 | 65 | 1011.5 |
| 20260509233141 | 64 | 231 | 3.5 | 5.2 | 0.00 | 0.14 | 0.14 | 64 | 1011.7 |
| 20260509232637 | 64 | 231 | 1.7 | 1.7 | 0.00 | 0.14 | 0.14 | 63 | 1011.3 |
| 20260509232134 | 64 | 207 | 3.5 | 4.3 | 0.00 | 0.14 | 0.14 | 63 | 1011.6 |
| 20260509231630 | 64 | 218 | 4.3 | 5.2 | 0.00 | 0.14 | 0.14 | 63 | 1011.5 |
| 20260509231128 | 64 | 256 | 5.2 | 6.1 | 0.00 | 0.14 | 0.14 | 63 | 1011.4 |
| 20260509230625 | 64 | 227 | 6.1 | 7.8 | 0.00 | 0.14 | 0.14 | 63 | 1011.4 |
| 20260509230122 | 64 | 224 | 5.2 | 7.0 | 0.00 | 0.14 | 0.14 | 63 | 1011.5 |
| 20260509225618 | 64 | 222 | 1.7 | 1.7 | 0.00 | 0.14 | 0.14 | 63 | 1011.6 |
| 20260509225113 | 64 | 200 | 4.3 | 8.7 | 0.00 | 0.14 | 0.14 | 63 | 1011.5 |
| 20260509224608 | 65 | 238 | 7.0 | 7.8 | 0.00 | 0.14 | 0.14 | 62 | 1011.7 |
| 20260509224106 | 65 | 231 | 3.5 | 4.3 | 0.00 | 0.14 | 0.14 | 62 | 1011.6 |
| 20260509223603 | 65 | 236 | 6.1 | 8.7 | 0.00 | 0.14 | 0.14 | 61 | 1011.7 |
| 20260509223100 | 65 | 281 | 9.6 | 13.0 | 0.00 | 0.14 | 0.14 | 62 | 1011.7 |
| 20260509222556 | 65 | 268 | 6.1 | 7.0 | 0.00 | 0.14 | 0.14 | 61 | 1011.9 |
| 20260509222052 | 65 | 246 | 4.3 | 11.3 | 0.00 | 0.14 | 0.14 | 61 | 1011.9 |
| 20260509221548 | 65 | 253 | 6.1 | 8.7 | 0.00 | 0.14 | 0.14 | 62 | 1011.9 |
| 20260509221044 | 64 | 234 | 2.6 | 4.3 | 0.00 | 0.14 | 0.14 | 62 | 1012.0 |
| 20260509220540 | 66 | 229 | 7.8 | 11.3 | 0.00 | 0.14 | 0.14 | 61 | 1012.0 |
| 20260509220037 | 66 | 206 | 2.6 | 2.6 | 0.00 | 0.14 | 0.14 | 62 | 1012.0 |
| 20260509215532 | 66 | 227 | 6.1 | 7.0 | 0.00 | 0.14 | 0.14 | 61 | 1012.0 |
| 20260509215030 | 67 | 243 | 4.3 | 6.1 | 0.00 | 0.14 | 0.14 | 61 | 1012.0 |
| 20260509214527 | 66 | 248 | 6.1 | 7.8 | 0.00 | 0.14 | 0.14 | 61 | 1012.0 |
| 20260509214023 | 65 | 221 | 6.1 | 7.0 | 0.00 | 0.14 | 0.14 | 64 | 1012.0 |
| 20260509213520 | 64 | 240 | 4.3 | 6.1 | 0.00 | 0.14 | 0.14 | 64 | 1012.1 |
| 20260509213017 | 65 | 232 | 7.0 | 7.8 | 0.00 | 0.14 | 0.14 | 63 | 1012.0 |
| 20260509212514 | 64 | 221 | 0.9 | 0.9 | 0.00 | 0.14 | 0.14 | 65 | 1012.1 |
| 20260509212011 | 64 | 221 | 4.3 | 6.1 | 0.00 | 0.14 | 0.14 | 64 | 1011.5 |
| 20260509211506 | 65 | 284 | 5.2 | 7.0 | 0.00 | 0.14 | 0.14 | 62 | 1012.0 |
| 20260509211003 | 65 | 244 | 5.2 | 6.1 | 0.00 | 0.14 | 0.14 | 63 | 1012.1 |
| 20260509210500 | 64 | 230 | 3.5 | 6.1 | 0.00 | 0.14 | 0.14 | 65 | 1012.0 |
| 20260509205955 | 65 | 238 | 3.5 | 5.2 | 0.00 | 0.14 | 0.14 | 66 | 1012.0 |
| 20260509205450 | 65 | 185 | 1.7 | 2.6 | 0.00 | 0.14 | 0.14 | 65 | 1012.1 |
| 20260509204946 | 65 | 185 | 6.1 | 7.8 | 0.00 | 0.14 | 0.14 | 63 | 1011.9 |
| 20260509204443 | 64 | 221 | 2.6 | 2.6 | 0.00 | 0.14 | 0.14 | 66 | 1011.7 |
| 20260509203939 | 64 | 244 | 2.6 | 2.6 | 0.00 | 0.14 | 0.14 | 67 | 1012.2 |
| 20260509203435 | 64 | 282 | 4.3 | 5.2 | 0.00 | 0.14 | 0.14 | 66 | 1012.0 |
| 20260509202933 | 64 | 272 | 3.5 | 4.3 | 0.00 | 0.14 | 0.14 | 67 | 1012.3 |
| 20260509202429 | 63 | 241 | 0.9 | 1.7 | 0.00 | 0.14 | 0.14 | 71 | 1012.2 |
| 20260509201924 | 63 | 231 | 1.7 | 2.6 | 0.00 | 0.14 | 0.14 | 71 | 1012.3 |
| 20260509201419 | 62 | 242 | 2.6 | 2.6 | 0.00 | 0.14 | 0.14 | 69 | 1012.0 |
| 20260509200917 | 62 | 267 | 3.5 | 4.3 | 0.00 | 0.14 | 0.14 | 70 | 1012.3 |
| 20260509200416 | 63 | 297 | 2.6 | 4.3 | 0.00 | 0.14 | 0.14 | 69 | 1012.2 |
| 20260509195913 | 63 | 318 | 4.3 | 5.2 | 0.00 | 0.14 | 0.14 | 67 | 1012.4 |
| 20260509195408 | 63 | 270 | 3.5 | 4.3 | 0.00 | 0.14 | 0.14 | 70 | 1012.6 |
| 20260509194902 | 62 | 235 | 5.2 | 7.0 | 0.00 | 0.14 | 0.14 | 70 | 1012.5 |
| 20260509194359 | 63 | 227 | 6.1 | 7.8 | 0.00 | 0.14 | 0.14 | 67 | 1012.5 |
| 20260509193855 | 63 | 219 | 3.5 | 4.3 | 0.00 | 0.14 | 0.14 | 68 | 1012.5 |
| 20260509193350 | 63 | 251 | 7.8 | 8.7 | 0.00 | 0.14 | 0.14 | 67 | 1012.3 |
| 20260509192846 | 64 | 258 | 5.2 | 7.0 | 0.00 | 0.14 | 0.14 | 71 | 1012.8 |
| 20260509192343 | 63 | 227 | 0.9 | 0.9 | 0.00 | 0.14 | 0.14 | 72 | 1012.5 |
| 20260509191838 | 62 | 236 | 5.2 | 7.0 | 0.00 | 0.14 | 0.14 | 69 | 1012.5 |
| 20260509191334 | 62 | 225 | 0.9 | 0.9 | 0.00 | 0.14 | 0.14 | 72 | 1012.6 |
| 20260509190830 | 62 | 298 | 2.6 | 5.2 | 0.00 | 0.14 | 0.14 | 72 | 1012.6 |
| 20260509190327 | 61 | 226 | 5.2 | 6.1 | 0.00 | 0.14 | 0.14 | 71 | 1012.6 |
| 20260509185825 | 62 | 233 | 2.6 | 2.6 | 0.00 | 0.14 | 0.14 | 70 | 1012.5 |
| 20260509185321 | 62 | 249 | 4.3 | 6.1 | 0.00 | 0.14 | 0.14 | 72 | 1012.6 |
| 20260509184818 | 61 | 226 | 4.3 | 5.2 | 0.00 | 0.14 | 0.14 | 73 | 1012.6 |
| 20260509184315 | 60 | 233 | 6.1 | 7.0 | 0.00 | 0.14 | 0.14 | 73 | 1012.4 |
| 20260509183812 | 60 | 186 | 2.6 | 2.6 | 0.00 | 0.14 | 0.14 | 73 | 1012.3 |
| 20260509183307 | 59 | 243 | 6.1 | 7.0 | 0.00 | 0.14 | 0.14 | 73 | 1012.5 |
| 20260509182803 | 59 | 213 | 6.1 | 7.0 | 0.00 | 0.14 | 0.14 | 74 | 1012.3 |
| 20260509182300 | 59 | 209 | 4.3 | 5.2 | 0.00 | 0.14 | 0.14 | 75 | 1012.5 |
| 20260509181757 | 59 | 235 | 3.5 | 4.3 | 0.00 | 0.14 | 0.14 | 74 | 1012.7 |
| 20260509181255 | 59 | 226 | 2.6 | 5.2 | 0.00 | 0.14 | 0.14 | 76 | 1012.4 |
| 20260509180752 | 59 | 224 | 1.7 | 2.6 | 0.00 | 0.14 | 0.14 | 76 | 1012.7 |
| 20260509180248 | 59 | 228 | 5.2 | 6.1 | 0.00 | 0.14 | 0.14 | 74 | 1012.4 |
| 20260509175745 | 59 | 238 | 5.2 | 6.1 | 0.00 | 0.14 | 0.14 | 74 | 1012.3 |
| 20260509175241 | 58 | 224 | 0.9 | 1.7 | 0.00 | 0.14 | 0.14 | 77 | 1012.6 |
| 20260509174737 | 58 | 226 | 3.5 | 4.3 | 0.00 | 0.14 | 0.14 | 76 | 1012.6 |
| 20260509174233 | 58 | 218 | 2.6 | 2.6 | 0.00 | 0.14 | 0.14 | 76 | 1012.5 |
| 20260509173729 | 57 | 217 | 2.6 | 2.6 | 0.00 | 0.14 | 0.14 | 76 | 1012.8 |
| 20260509173225 | 57 | 226 | 0.9 | 1.7 | 0.00 | 0.14 | 0.14 | 76 | 1012.5 |
| 20260509172721 | 57 | 204 | 4.3 | 6.1 | 0.00 | 0.14 | 0.14 | 77 | 1012.5 |
| 20260509172218 | 57 | 216 | 2.6 | 2.6 | 0.00 | 0.14 | 0.14 | 78 | 1012.5 |
| 20260509171713 | 56 | 211 | 1.7 | 1.7 | 0.00 | 0.14 | 0.14 | 77 | 1012.8 |
| 20260509171210 | 56 | 216 | 0.9 | 0.9 | 0.00 | 0.14 | 0.14 | 78 | 1012.6 |
| 20260509170707 | 56 | 203 | 1.7 | 1.7 | 0.00 | 0.14 | 0.14 | 79 | 1012.8 |
| 20260509170202 | 56 | 227 | 2.6 | 2.6 | 0.00 | 0.14 | 0.14 | 79 | 1012.8 |
| 20260509165701 | 56 | 204 | 1.7 | 1.7 | 0.00 | 0.14 | 0.14 | 80 | 1012.6 |
| 20260509165156 | 56 | 216 | 1.7 | 1.7 | 0.00 | 0.14 | 0.14 | 81 | 1012.7 |
| 20260509164653 | 57 | 228 | 0.9 | 0.9 | 0.00 | 0.14 | 0.14 | 81 | 1012.7 |
| 20260509164148 | 57 | 206 | 1.7 | 1.7 | 0.00 | 0.14 | 0.14 | 79 | 1012.9 |
| 20260509163646 | 57 | 217 | 0.9 | 0.9 | 0.00 | 0.14 | 0.14 | 80 | 1012.6 |
| 20260509163142 | 56 | 200 | 2.6 | 4.3 | 0.00 | 0.14 | 0.14 | 82 | 1012.7 |
| 20260509162640 | 56 | 216 | 1.7 | 1.7 | 0.00 | 0.14 | 0.14 | 85 | 1012.3 |
| 20260509162135 | 56 | 158 | 1.7 | 2.6 | 0.00 | 0.14 | 0.14 | 85 | 1012.5 |
| 20260509161631 | 55 | 157 | 2.6 | 4.3 | 0.00 | 0.14 | 0.14 | 85 | 1012.7 |
| 20260509161126 | 55 | 216 | 0.0 | 0.9 | 0.00 | 0.14 | 0.14 | 86 | 1013.0 |
| 20260509160623 | 55 | 216 | 0.0 | 0.9 | 0.00 | 0.14 | 0.14 | 86 | 1012.8 |
| 20260509160118 | 55 | 205 | 0.9 | 0.9 | 0.00 | 0.14 | 0.14 | 85 | 1012.9 |
| 20260509155615 | 55 | 215 | 0.9 | 1.7 | 0.00 | 0.14 | 0.14 | 86 | 1012.8 |
| 20260509155111 | 55 | 213 | 0.9 | 0.9 | 0.00 | 0.14 | 0.14 | 86 | 1012.9 |
| 20260509154607 | 55 | 215 | 1.7 | 1.7 | 0.00 | 0.14 | 0.14 | 85 | 1013.2 |
| 20260509154104 | 55 | 215 | 0.9 | 0.9 | 0.00 | 0.14 | 0.14 | 85 | 1013.3 |
| 20260509153601 | 55 | 215 | 2.6 | 2.6 | 0.00 | 0.14 | 0.14 | 82 | 1013.2 |
| 20260509153058 | 55 | 228 | 2.6 | 2.6 | 0.00 | 0.14 | 0.14 | 84 | 1013.0 |
| 20260509152554 | 55 | 201 | 0.9 | 1.7 | 0.00 | 0.14 | 0.14 | 86 | 1013.2 |
| 20260509152051 | 54 | 215 | 1.7 | 1.7 | 0.00 | 0.14 | 0.14 | 87 | 1013.0 |
| 20260509151547 | 54 | 205 | 1.7 | 1.7 | 0.00 | 0.14 | 0.14 | 87 | 1013.2 |
| 20260509151045 | 54 | 216 | 0.0 | 0.0 | 0.00 | 0.14 | 0.14 | 87 | 1013.3 |
| 20260509150543 | 54 | 216 | 0.9 | 0.9 | 0.00 | 0.14 | 0.14 | 86 | 1013.4 |
| 20260509150041 | 54 | 210 | 1.7 | 2.6 | 0.00 | 0.14 | 0.14 | 85 | 1013.3 |
| 20260509145536 | 53 | 211 | 1.7 | 2.6 | 0.00 | 0.14 | 0.14 | 86 | 1013.2 |
| 20260509145031 | 54 | 224 | 0.9 | 0.9 | 0.00 | 0.14 | 0.14 | 87 | 1013.3 |
| 20260509144529 | 53 | 216 | 0.9 | 0.9 | 0.00 | 0.14 | 0.14 | 87 | 1013.2 |
| 20260509144026 | 53 | 205 | 1.7 | 1.7 | 0.00 | 0.14 | 0.14 | 88 | 1013.4 |
| 20260509143522 | 53 | 215 | 0.0 | 0.9 | 0.00 | 0.14 | 0.14 | 89 | 1013.3 |
| 20260509143021 | 53 | 215 | 0.0 | 0.0 | 0.00 | 0.14 | 0.14 | 89 | 1013.3 |
| 20260509142516 | 53 | 215 | 0.9 | 0.9 | 0.00 | 0.14 | 0.14 | 89 | 1013.3 |
| 20260509142011 | 52 | 216 | 0.0 | 0.9 | 0.00 | 0.14 | 0.14 | 89 | 1013.1 |
| 20260509141508 | 52 | 212 | 0.9 | 1.7 | 0.00 | 0.14 | 0.14 | 89 | 1013.2 |
| 20260509141005 | 52 | 218 | 0.0 | 0.0 | 0.00 | 0.14 | 0.14 | 89 | 1013.3 |
| 20260509140502 | 52 | 211 | 0.9 | 0.9 | 0.00 | 0.14 | 0.14 | 89 | 1013.3 |
| 20260509140000 | 52 | 219 | 0.9 | 1.7 | 0.00 | 0.14 | 0.14 | 89 | 1013.3 |
| 20260509135457 | 52 | 224 | 1.7 | 1.7 | 0.05 | 0.14 | 0.14 | 89 | 1013.3 |
| 20260509134954 | 52 | 216 | 0.9 | 0.9 | 0.05 | 0.14 | 0.14 | 89 | 1013.5 |
| 20260509134451 | 52 | 226 | 1.7 | 1.7 | 0.00 | 0.13 | 0.13 | 89 | 1013.4 |
| 20260509133949 | 52 | 216 | 0.9 | 0.9 | 0.00 | 0.13 | 0.13 | 89 | 1013.5 |
| 20260509133445 | 52 | 216 | 0.0 | 0.0 | 0.00 | 0.13 | 0.13 | 89 | 1013.4 |
| 20260509132943 | 52 | 203 | 0.9 | 1.7 | 0.00 | 0.13 | 0.13 | 89 | 1013.3 |
| 20260509132441 | 52 | 200 | 1.7 | 1.7 | 0.00 | 0.13 | 0.13 | 89 | 1013.4 |
| 20260509131938 | 52 | 204 | 0.9 | 1.7 | 0.00 | 0.13 | 0.13 | 89 | 1013.4 |
| 20260509131435 | 52 | 215 | 1.7 | 1.7 | 0.00 | 0.13 | 0.13 | 89 | 1013.6 |
| 20260509130932 | 52 | 216 | 1.7 | 1.7 | 0.00 | 0.13 | 0.13 | 89 | 1013.5 |
| 20260509130427 | 51 | 190 | 2.6 | 2.6 | 0.07 | 0.13 | 0.13 | 89 | 1013.4 |
| 20260509125924 | 51 | 172 | 3.5 | 4.3 | 0.07 | 0.13 | 0.13 | 90 | 1013.4 |
| 20260509125421 | 51 | 213 | 0.9 | 0.9 | 0.00 | 0.12 | 0.12 | 91 | 1013.8 |
| 20260509124917 | 51 | 205 | 0.9 | 1.7 | 0.05 | 0.12 | 0.12 | 90 | 1013.9 |
| 20260509124414 | 51 | 202 | 0.9 | 1.7 | 0.05 | 0.12 | 0.12 | 90 | 1013.8 |
| 20260509123912 | 51 | 222 | 2.6 | 4.3 | 0.07 | 0.11 | 0.11 | 90 | 1014.1 |
| 20260509123409 | 51 | 233 | 3.5 | 5.2 | 0.07 | 0.11 | 0.11 | 90 | 1013.8 |
| 20260509122904 | 51 | 216 | 1.7 | 1.7 | 0.00 | 0.10 | 0.10 | 91 | 1013.9 |
| 20260509122402 | 51 | 201 | 1.7 | 1.7 | 0.00 | 0.10 | 0.10 | 90 | 1013.8 |
| 20260509121858 | 51 | 196 | 1.7 | 1.7 | 0.05 | 0.10 | 0.10 | 90 | 1013.8 |
| 20260509121355 | 50 | 215 | 1.7 | 1.7 | 0.05 | 0.10 | 0.10 | 91 | 1013.9 |
| 20260509120854 | 51 | 204 | 0.9 | 0.9 | 0.00 | 0.09 | 0.09 | 91 | 1013.8 |